Location: Rayville
(42.4642°N, 73.5384°W)
Time: 01:07:32
(UTC+00:00)

ISS - Visible Passes

Search period start: 16 October 2024 00:00
Search period end: 26 October 2024 00:00
Orbit: 411 x 423 km, 51.6° (Epoch: 15 October)

Date Brightness Start Highest point End Pass type
(mag) Time Alt. Az. Time Alt. Az. Time Alt. Az.
16 Oct -2.3 10:33:39 10° SSW 10:36:45 38° SE 10:39:52 10° ENE visible
17 Oct -1.5 09:45:53 10° S 09:48:33 22° SE 09:51:13 10° E visible
18 Oct -1.0 08:59:37 13° SE 09:00:22 13° SE 09:02:02 10° E visible
18 Oct -3.8 10:33:22 10° WSW 10:36:42 77° NNW 10:40:01 10° NE visible
19 Oct -3.5 09:46:46 28° SW 09:48:18 63° SE 09:51:36 10° ENE visible
20 Oct -1.9 09:00:46 30° ESE 09:00:46 30° ESE 09:03:00 10° ENE visible
20 Oct -2.9 10:33:42 11° W 10:36:40 34° NNW 10:39:44 10° NE visible
21 Oct -3.5 09:47:31 44° WNW 09:48:04 51° NNW 09:51:20 10° NE visible
22 Oct -1.7 09:01:12 26° NE 09:01:12 26° NE 09:02:50 10° NE visible
22 Oct -2.1 10:34:07 11° WNW 10:36:37 21° NNW 10:39:16 10° NE visible
23 Oct -2.5 09:47:41 27° NNW 09:47:51 27° NNW 09:50:46 10° NE visible
24 Oct -1.2 09:01:08 18° NE 09:01:08 18° NE 09:02:14 10° NE visible
24 Oct -1.7 10:34:14 10° NW 10:36:31 17° N 10:38:49 10° NE visible
25 Oct -1.9 09:47:24 19° NNW 09:47:37 19° N 09:50:05 10° NE visible
